AO-07 1 07530U 74089B 17012.85034955 -.00000046 00000-0 -12599-4 0 9995 2 07530 101.6080 344.7401 0011747 264.1842 109.8772 12.53625072929392 UO-11 1 14781U 84021B 17012.76581266 .00000085 00000-0 16859-4 0 9994 2 14781 97.7209 64.0142 0008331 359.1614 0.9584 14.82847445767315 LO-19 1 20442U 90005G 17012.42142408 -.00000000 00000-0 15898-4 0 9998 2 20442 98.5634 310.6286 0010692 246.2372 113.7691 14.32845432409310 HUBBLE 1 20580U 90037B 17011.96673389 .00000503 00000-0 20112-4 0 9993 2 20580 028.4707 319.6982 0002513 293.8221 144.8373 15.08643848266585 MET-2/21 1 22782U 93055A 17011.86218948 .00000050 00000-0 31831-4 0 9994 2 22782 82.5501 147.6450 0023226 147.2102 17.5477 13.83796704180078 AO-27 1 22825U 93061C 17011.87921041 -.00000014 00000-0 12008-4 0 9991 2 22825 98.7903 335.7306 0009458 70.2997 289.9204 14.29982572215061 IO-26 1 22826U 93061D 17011.87612267 -.00000006 00000-0 15019-4 0 9995 2 22826 98.7845 335.8279 0009905 61.7643 298.4538 14.30309917215239 FO-29 1 24278U 96046B 17012.21432705 -.00000044 00000-0 -86947-5 0 9992 2 24278 98.5832 276.0519 0350800 21.5461 340.0036 13.53074046 7786 NOAA-15 1 25338U 98030A 17012.56351269 .00000023 00000-0 28499-4 0 9990 2 25338 98.7842 23.1458 0009735 301.7012 58.3218 14.25772979970828 GO-32 1 25397U 98043D 17012.79825945 -.00000024 00000-0 81322-5 0 9998 2 25397 98.5934 318.5533 0002415 89.5563 270.5892 14.23612692961681 ISS 1 25544U 98067A 17012.93744213 .00002634 00000-0 47166-4 0 9997 2 25544 51.6438 92.2505 0007434 78.5234 267.6679 15.54056433 37604 NO-44 1 26931U 01043C 17011.76934926 -.00000037 00000-0 17577-4 0 9997 2 26931 67.0514 134.7699 0006366 281.5219 78.5168 14.30442839797976 SO-50 1 27607U 02058C 17012.77240316 .00000002 00000-0 20934-4 0 9992 2 27607 64.5545 240.4640 0042665 163.4981 196.7521 14.75270270756181 CO-55 1 27844U 03031E 17012.57520683 .00000056 00000-0 44979-4 0 9997 2 27844 98.6913 23.8380 0010757 79.0163 281.2224 14.22008047702203 CO-57 1 27848U 03031J 17011.75882937 .00000044 00000-0 39844-4 0 9995 2 27848 98.7007 23.2239 0010701 89.1852 271.0552 14.21626517701976 RS-22 1 27939U 03042A 17012.83584448 .00000089 00000-0 24460-4 0 9991 2 27939 97.9145 162.8130 0012983 5.4223 144.1684 14.66509505710543 NOAA-18 1 28654U 05018A 17012.55191846 .00000018 00000-0 35270-4 0 9999 2 28654 99.1925 30.8823 0014869 145.4905 214.7234 14.12321562600299 CO-58 1 28895U 05043F 17011.93254109 .00000133 00000-0 34418-4 0 9998 2 28895 097.8454 181.5961 0015573 278.6919 081.2520 14.63326259597409 CO-65 1 32785U 08021C 17012.81988139 .00000233 00000-0 31244-4 0 9990 2 32785 97.5816 44.0711 0012301 328.8210 31.2276 14.87773638471794 AAUSAT2 1 32788U 08021F 17012.08699570 .00000195 00000-0 23664-4 0 9994 2 32788 97.5788 53.8089 0010667 295.4951 64.5165 14.93635797472376 DO-64 1 32789U 08021G 17012.60114951 .00000756 00000-0 58658-4 0 9992 2 32789 97.5802 74.0003 0011526 270.4477 89.5428 15.04275629473474 CO-66 1 32791U 08021J 17012.05448713 .00000320 00000-0 38625-4 0 9999 2 32791 97.5808 47.2061 0012415 316.7852 43.2391 14.90057791471890 RS-30 1 32953U 08025A 17012.38407515 .00000000 00000-0 -69829-4 0 9990 2 32953 82.5046 336.5468 0017789 266.7342 93.1703 12.43074377392067 PRISM 1 33493U 09002B 17012.67284831 .00001215 00000-0 11556-3 0 9993 2 33493 98.1889 248.3545 0014207 233.3755 126.6179 14.95409429432536 NOAA-19 1 33591U 09005A 17012.53540787 .00000097 00000-0 78020-4 0 9992 2 33591 99.0711 337.3356 0013994 354.2061 5.8946 14.12143820408681 TISAT-1 1 36799U 10035E 17012.77725706 .00000319 00000-0 38934-4 0 9999 2 36799 98.0456 132.5658 0013776 115.7556 244.5085 14.90185956352648 JUGNU 1 37839U 11058B 17011.96027507 .00000308 00000-0 22083-4 0 9991 2 37839 019.9622 317.7459 0018833 260.9462 163.5959 14.12568064271475 SRMSAT 1 37841U 11058D 17011.31857580 .00000288 00000-0 13329-4 0 9995 2 37841 19.9734 0.0905 0011978 157.5970 336.6582 14.10561797271107 AO-71 1 37854U 11061E 17012.35894852 .00002738 00000-0 15486-3 0 9998 2 37854 101.7047 166.7111 0169557 175.9518 184.3110 15.03446308283512 HRBE 1 37855U 11061F 17011.86088514 .00001922 00000-0 10927-3 0 9993 2 37855 101.7157 163.8757 0183039 182.8914 177.1254 15.02379487283316 ALMASAT-1 1 38078U 12006B 17012.62497378 .00025726 00000-0 30151-3 0 9997 2 38078 69.4428 188.6889 0339947 159.4899 202.0823 15.14341790261178 HORYU-2 1 38340U 12025D 17011.95617119 .00000213 00000-0 39680-4 0 9993 2 38340 098.3707 010.4305 0012861 070.7209 289.5389 14.75228135239848 RS-40 1 38735U 12041C 17012.81164149 .00000002 00000-0 -60163-4 0 9992 2 38735 82.4744 61.0734 0016689 10.8762 349.2675 12.42573971202407 BEESAT-3 1 39134U 13015E 17012.75094844 .00001899 00000-0 94460-4 0 9996 2 39134 64.8709 7.8845 0023732 308.3965 51.5537 15.17124630205899 BEESAT-2 1 39136U 13015G 17012.30587495 .00001174 00000-0 73476-4 0 9998 2 39136 64.8702 17.9268 0024180 303.4547 56.4266 15.14548251205669 ZACUBE-1 1 39417U 13066B 17012.11991976 .00000220 00000-0 34380-4 0 9990 2 39417 97.6522 61.7515 0060706 61.1165 299.6121 14.80596034169681 TRITON-1 1 39427U 13066M 17011.83378706 .00000219 00000-0 42822-4 0 9997 2 39427 97.6482 37.5973 0115667 129.1331 232.0225 14.67357641168110 GOMX-1 1 39430U 13066Q 17012.74739918 .00000156 00000-0 37229-4 0 9993 2 39430 97.6628 23.6740 0152280 173.4232 186.9016 14.58766563167276 LO-74 1 39440U 13066AA 17012.05606198 .00000203 00000-0 35443-4 0 9990 2 39440 97.6481 52.1261 0082355 86.9569 274.1061 14.75344139169075 AO-73 1 39444U 13066AE 17012.10782319 .00000259 00000-0 38784-4 0 9992 2 39444 97.6537 62.5969 0059843 58.5769 302.1277 14.81305296168500 SPROUT 1 39770U 14029E 17012.76024651 .00000660 00000-0 81837-4 0 9997 2 39770 97.8723 113.7373 0010662 114.6370 245.5948 14.85920985143057 DUCHIFAT-1 1 40021U 14033M 17012.74442570 .00000406 00000-0 48387-4 0 9996 2 40021 97.9248 285.6484 0014578 92.4283 267.8603 14.89679058139459 NANOSATCBR1 1 40024U 14033Q 17012.74485481 .00000358 00000-0 44029-4 0 9992 2 40024 97.9215 284.7692 0013839 92.9415 267.3386 14.89034974139419 EO-79 1 40025U 14033R 17012.71029655 .00000286 00000-0 37026-4 0 9996 2 40025 97.9202 283.9952 0014007 95.3314 264.9501 14.88272556139364 DTUSAT-2 1 40030U 14033W 17012.27286186 .00000284 00000-0 37121-4 0 9991 2 40030 97.9173 282.8245 0013511 91.2813 268.9951 14.87899356139273 EO-80 1 40032U 14033Y 17012.30821197 .00000280 00000-0 36682-4 0 9991 2 40032 97.9181 282.8677 0013418 91.5797 268.6956 14.87833297139266 ANTELSAT 1 40034U 14033AA 17012.65647429 .00000240 00000-0 43572-4 0 9997 2 40034 97.8797 261.2114 0060502 73.2506 287.5329 14.73584163138025 VELOX-1 1 40057U 14034E 17012.75890958 .00000343 00000-0 56335-4 0 9996 2 40057 98.1890 110.6947 0011016 188.7360 171.3658 14.76970781136813 DAURIA DX 1 1 40071U 14037C 17012.73531528 .00000159 00000-0 28002-4 0 9993 2 40071 98.3304 117.7453 0008325 183.3025 176.8146 14.80945244135967 UKUBE-1 1 40074U 14037F 17012.74768740 .00000418 00000-0 58087-4 0 9999 2 40074 98.3373 120.8332 0004478 177.3348 182.7898 14.83344844136135 HODOYOSHI-1 1 40299U 14070B 17012.77960271 .00000786 00000-0 37519-4 0 9996 2 40299 97.4165 97.8331 0011784 280.1813 175.6168 15.21919892121301 CHUBUSAT-1 1 40300U 14070C 17012.73197700 .00001010 00000-0 49244-4 0 9993 2 40300 97.4099 95.4129 0019230 288.0443 170.9276 15.20487065121162 QSAT-EOS 1 40301U 14070D 17012.72883168 .00001967 00000-0 87461-4 0 9997 2 40301 97.4037 95.0885 0026526 284.5750 174.5122 15.22413451121179 FIREBIRD FU3 1 40377U 15003B 17011.86070707 .00002725 00000-0 12129-3 0 9999 2 40377 99.1068 164.8910 0139444 159.6696 201.0160 15.14351013107341 FIREBIRD FU4 1 40378U 15003C 17012.71405743 .00003307 00000-0 14588-3 0 9995 2 40378 99.1073 165.9374 0139658 156.7860 203.9758 15.14374779107474 GRIFEX 1 40379U 15003D 17012.72513730 .00001910 00000-0 90751-4 0 9998 2 40379 99.1080 164.3676 0144750 162.4392 198.1915 15.12175267107383 NO-84 1 40654U 15025D 17011.19256244 .00005198 00000-0 11010-3 0 03370 2 40654 054.9970 216.6572 0189602 230.9879 127.4132 15.30200363055832 NO-83 1 40655U 15025E 17011.18386459 .00012350 00000-0 21568-3 0 03728 2 40655 054.9828 201.5415 0163629 239.1621 119.3231 15.37654328056024 DEORBITSAIL 1 40719U 15032E 17012.19675709 .00000390 00000-0 64189-4 0 9991 2 40719 97.9972 267.7583 0015433 287.4325 72.5197 14.75869803 81316 NUDT-PHONESAT 1 40900U 15049B 17012.83076464 .00002148 00000-0 10736-3 0 9996 2 40900 97.4437 23.0617 0015788 51.7934 308.4719 15.18433391 72870 XW-2A 1 40903U 15049E 17012.78438401 .00001877 00000-0 52502-4 0 9992 2 40903 97.4341 36.5501 0017003 102.6316 257.6831 15.37860527 73754 XW-2C 1 40906U 15049H 17012.76325930 .00000748 00000-0 44459-4 0 9993 2 40906 97.4540 21.4090 0016419 37.7707 322.4674 15.14187700 72717 XW-2D 1 40907U 15049J 17012.82213387 .00000784 00000-0 46331-4 0 9994 2 40907 97.4508 21.2716 0015747 36.1630 324.0664 15.14267783 72724 LILACSAT-2 1 40908U 15049K 17012.80352611 .00000387 00000-0 25604-4 0 9996 2 40908 97.4608 21.1606 0017131 32.6989 327.5299 15.12906321 72672 XW-2F 1 40910U 15049M 17012.84027994 .00001144 00000-0 64664-4 0 9997 2 40910 97.4533 21.7387 0016606 34.2007 326.0292 15.14987501 72633 XW-2B 1 40911U 15049N 17012.82478794 .00000768 00000-0 45478-4 0 9997 2 40911 97.4553 21.5682 0015651 36.4450 323.7844 15.14238315 72625 DCBB 1 40912U 15049P 17012.78352788 .00001407 00000-0 74312-4 0 9997 2 40912 97.4517 23.0731 0016989 28.4873 77.3285 15.17027052 72722 TW-1C 1 40926U 15051B 17012.78884880 .00006054 00000-0 15256-3 0 9992 2 40926 97.2507 53.6557 0013170 22.4094 88.5220 15.40170314 72984 TW-1A 1 40928U 15051D 17012.78841078 .00002327 00000-0 71003-4 0 9998 2 40928 97.2476 51.3649 0014522 42.3053 46.5607 15.34836540 72858 IO-86 1 40931U 15052B 17012.27778422 .00000703 00000-0 89277-5 0 9998 2 40931 5.9994 264.3457 0013165 200.7275 159.2362 14.76506469 69882 GomX-3 1 40949U 98067HA 16292.18357804 .08527750 12374-4 77882-3 0 9992 2 40949 51.6055 106.7696 0006699 286.1344 73.8944 16.38002265 59645 LQSat 1 40958U 15057A 17012.75194438 .00000024 00000-0 11540-4 0 9997 2 40958 97.9949 90.6695 0017463 200.2079 159.8429 14.72936666 68238 AO-85 1 40967U 15058D 17011.38403667 .00000120 00000-0 32950-4 0 03655 2 40967 064.7768 334.4629 0178955 135.7369 225.8210 14.75289704053988 ATHENOXAT-1 1 41168U 15077C 17012.76999424 .00002146 00000-0 85748-4 0 9990 2 41168 14.9881 224.3312 0012120 22.1622 59.7948 15.10973752 59490 ChubuSat-2 1 41338U 16012B 17012.40510614 .00000398 00000-0 24634-4 0 9994 2 41338 31.0045 21.5510 0013961 317.4381 42.5172 14.99617409 49582 ChubuSat-3 1 41339U 16012C 17012.35512532 .00000444 00000-0 28184-4 0 9996 2 41339 31.0127 21.2697 0013943 323.8554 36.1151 14.99832697 49551 Horyu-4 1 41340U 16012D 17011.39401904 .00000648 00000-0 43571-4 0 9994 2 41340 31.0063 25.8525 0014231 320.5200 39.4398 15.00392743 49448 OUFTI-1 1 41458U 16025C 17012.70431532 .00001352 00000-0 72482-4 0 9990 2 41458 98.1987 41.3110 0177383 88.7820 273.4247 15.02371513 39221 e-st@r-II 1 41459U 16025D 17011.97909360 .00001068 00000-0 61610-4 0 9993 2 41459 098.2031 040.5276 0179356 091.5541 270.6235 15.02280466039111 AAUSAT4 1 41460U 16025E 17012.78660640 .00001811 00000-0 10178-3 0 9998 2 41460 98.1966 41.4234 0173087 87.7347 274.3660 15.02900062 39247 MinXSS 1 41474U 98067HU 17012.75353682 .00047585 00000-0 33512-3 0 9996 2 41474 51.6403 77.5045 0002364 284.3536 75.7722 15.73382178 37730 CADRE 1 41475U 98067HV 17003.74787607 .12518598 12537-4 55989-3 0 9998 2 41475 51.6110 110.0165 0004040 312.3134 47.7551 16.43344525 36494 NODES 1 1 41477U 98067HX 17012.58813834 .00019137 00000-0 17775-3 0 9995 2 41477 51.6371 82.3451 0001035 223.5540 136.5374 15.67459853 37564 NODES 2 1 41478U 98067HY 17012.59979350 .00019139 00000-0 17894-3 0 9997 2 41478 51.6370 82.4208 0001058 222.6279 137.4635 15.67296136 37562 LO-87 1 41557U 16033B 17012.81136904 .00001427 00000-0 57574-4 0 9994 2 41557 97.4784 92.2922 0014291 189.3554 170.7420 15.26412268 34725 NuSat2 1 41558U 16033C 17012.24168281 .00001521 00000-0 61417-4 0 9991 2 41558 97.4812 91.7494 0013762 189.8611 170.2359 15.26283028 34633 Lapan A3 1 41603U 16040E 17012.81091507 .00000260 00000-0 15602-4 0 9993 2 41603 97.4845 76.4654 0011913 256.2478 214.1465 15.19240230 31064 Swayam 1 41607U 16040J 17011.88939643 .00001491 00000-0 72206-4 0 9995 2 41607 097.4828 075.6007 0013085 261.4494 098.5258 15.20062130030853 Pratham 1 41783U 16059A 17011.93078617 .00000044 00000-0 18096-4 0 9991 2 41783 098.1900 074.7446 0032435 291.3310 068.4430 14.62796103015752 AlSat 1N 1 41789U 16059G 17012.73142364 .00000089 00000-0 26387-4 0 9998 2 41789 98.1907 75.7445 0027059 283.6134 76.2082 14.63997589 15863 ScatSat 1 41790U 16059H 17011.63012156 .00000002 00000-0 11348-4 0 9999 2 41790 98.0891 68.1143 0010078 268.9563 91.0477 14.50089621 15578 TY-1 1 41844U 16066D 17012.84501249 -.00000070 00000-0 00000 0 0 9991 2 41844 97.4047 22.4003 0017696 66.2184 56.1257 15.21595493 9718 CAS-2T 1 41845U 16066E 17012.71309776 -.00000073 00000-0 00000 0 0 9992 2 41845 98.7814 24.5944 0366861 349.8133 9.5781 14.37682981 9154 Pegasus-1 1 41846U 16066F 17012.68176448 -.00000073 00000-0 00000 0 0 9997 2 41846 98.7837 24.4977 0369361 350.5808 8.8634 14.36838050 9148 STARS-C 1 41895U 98067KR 17012.47827931 .00011364 00000-0 17301-3 0 9999 2 41895 51.6434 94.4040 0005661 96.0874 264.0617 15.55009568 3716 BY70-1 1 41909U 16083C 17012.71900058 .00239994 24078-5 43067-3 0 9997 2 41909 97.5831 91.5401 0189584 307.5675 50.8171 15.76668073 2436 /EX